Location: Chena
(64.8152°N, 147.9227°W)
Time: 13:16:49
(UTC+00:00)

N. Korean satellite - Pass Details

Date: 28 January 2021
Orbit: 451 x 503 km, 97.2° (Epoch: 28 February)

Event Time Altitude Azimuth Distance (km) Brightness Sun altitude
Rises 14:18:27 0° 23° (NNE) 2,526 10.7 -27.5°
Reaches altitude 10° 14:21:08 10° 45° (NE) 1,632 10.0 -27.2°
Maximum altitude 14:23:24 16° 86° (E) 1,284 9.5 -27.0°
Drops below altitude 10° 14:25:39 10° 127° (SE) 1,609 9.6 -26.7°
Sets 14:28:16 0° 149° (SSE) 2,471 10.4 -26.5°
